2017/07/17, +9, 136.10,  34.85, 385
00:00:00,  968.9,   22.1,   92.9,    0.85,    0.01,    0.0,   -2.0
00:00:05,  968.9,   22.1,   92.9,    1.20,    0.18,    0.0,   -2.0
00:00:10,  968.9,   22.1,   93.0,    1.18,   -0.19,    0.0,   -2.0
00:00:15,  968.9,   22.1,   92.9,    0.81,   -0.42,    0.0,   -2.0
00:00:20,  968.9,   22.1,   92.9,    0.53,   -0.09,    0.0,   -2.0
00:00:25,  969.0,   22.1,   93.0,    0.44,    0.11,    0.0,   -2.0
00:00:30,  968.9,   22.1,   93.0,    0.92,    0.23,    0.0,   -2.0
00:00:35,  969.0,   22.1,   92.8,    0.83,    0.11,    0.0,   -2.0
00:00:40,  968.9,   22.1,   93.0,    1.51,    0.38,    0.0,   -2.0
00:00:45,  968.9,   22.1,   92.8,    1.21,    0.26,    0.0,   -2.0
00:00:50,  968.9,   22.1,   92.9,    0.69,    0.32,    0.0,   -2.0
00:00:55,  969.0,   22.1,   92.8,    0.45,    0.09,    0.0,   -2.0
00:01:00,  969.0,   22.1,   92.9,    0.65,   -0.40,    0.0,   -2.0
00:01:05,  969.0,   22.1,   92.9,    0.56,   -0.12,    0.0,   -2.0
00:01:10,  969.0,   22.1,   92.8,    0.26,    0.14,    0.0,   -2.0
00:01:15,  968.9,   22.1,   92.9,    0.44,   -0.16,    0.0,   -2.0
00:01:20,  968.9,   22.1,   92.9,    0.46,    0.00,    0.0,   -2.0
00:01:25,  968.9,   22.0,   92.9,    0.90,    0.09,    0.0,   -2.0
00:01:30,  969.0,   22.0,   92.9,    0.76,   -0.03,    0.0,   -2.0
00:01:35,  968.9,   22.0,   92.9,    0.73,    0.23,    0.0,   -2.0
00:01:40,  969.0,   22.0,   92.9,    1.13,    0.36,    0.0,   -2.0
00:01:45,  968.9,   22.1,   92.9,    0.45,    0.61,    0.0,   -2.0
00:01:50,  969.0,   22.1,   92.9,    0.76,    0.14,    0.0,   -2.0
00:01:55,  969.0,   22.1,   92.9,    0.74,   -0.13,    0.0,   -2.0
00:02:00,  968.9,   22.0,   92.9,    0.54,    0.06,    0.0,   -2.0
00:02:05,  969.0,   22.1,   92.9,    0.24,   -0.08,    0.0,   -2.0
00:02:10,  969.0,   22.0,   92.9,    0.05,    0.03,    0.0,   -2.0
00:02:15,  969.0,   22.1,   92.8,    1.06,    0.34,    0.0,   -2.0
00:02:20,  969.0,   22.1,   92.9,    0.83,    0.35,    0.0,   -2.0
00:02:25,  969.0,   22.1,   92.9,    0.41,    0.19,    0.0,   -2.0
00:02:30,  969.0,   22.1,   92.8,    0.46,    0.09,    0.0,   -2.0
00:02:35,  969.0,   22.0,   92.8,   -0.00,    0.26,    0.0,   -2.0
00:02:40,  969.0,   22.1,   92.9,    0.28,    0.04,    0.0,   -2.0
00:02:45,  969.0,   22.1,   92.9,    0.65,    0.69,    0.0,   -2.0
00:02:50,  969.0,   22.0,   92.9,    0.61,   -0.39,    0.0,   -1.8
00:02:55,  968.9,   22.0,   93.0,    0.94,   -0.15,    0.0,   -1.8
00:03:00,  969.0,   22.1,   92.9,    0.76,    0.05,    0.0,   -1.8
00:03:05,  969.0,   22.1,   92.9,    0.93,   -0.15,    0.0,   -1.8
00:03:10,  969.0,   22.0,   92.9,    1.21,    0.18,    0.0,   -2.0
00:03:15,  969.0,   22.1,   92.9,    1.21,   -0.05,    0.0,   -1.6
00:03:20,  968.9,   22.1,   92.9,    0.91,   -0.04,    0.0,   -1.6
00:03:25,  969.0,   22.1,   92.9,    0.46,   -0.36,    0.0,   -1.6
00:03:30,  969.0,   22.1,   92.9,    1.03,    0.27,    0.0,   -1.6
00:03:35,  969.0,   22.1,   92.9,    0.88,    0.01,    0.0,   -1.6
00:03:40,  969.0,   22.1,   92.9,    0.80,    0.50,    0.0,   -2.0
00:03:45,  969.0,   22.1,   92.9,    0.71,    0.28,    0.0,   -2.0
00:03:50,  969.0,   22.1,   92.9,    0.33,    0.66,    0.0,   -1.8
00:03:55,  969.0,   22.1,   92.9,    0.51,    0.55,    0.0,   -2.0
00:04:00,  969.0,   22.1,   93.0,    0.99,    1.02,    0.0,   -1.8
00:04:05,  969.0,   22.1,   92.9,    1.65,    0.53,    0.0,   -2.0
00:04:10,  969.0,   22.1,   92.9,    1.90,    0.49,    0.0,   -2.0
00:04:15,  969.0,   22.1,   93.0,    1.65,    0.69,    0.0,   -2.0
00:04:20,  969.1,   22.1,   92.9,    1.49,    0.48,    0.0,   -2.0
00:04:25,  969.0,   22.1,   92.9,    1.90,    0.49,    0.0,   -2.0
00:04:30,  968.9,   22.1,   92.8,    1.51,    0.32,    0.0,   -2.0
00:04:35,  969.0,   22.1,   92.9,    1.79,    0.18,    0.0,   -2.0
00:04:40,  969.0,   22.1,   93.0,    1.73,    0.43,    0.0,   -2.0
00:04:45,  968.9,   22.1,   92.9,    1.72,   -0.18,    0.0,   -2.0
00:04:50,  969.0,   22.1,   93.0,    1.46,    0.01,    0.0,   -2.0
00:04:55,  969.0,   22.1,   93.0,    1.54,    0.01,    0.0,   -2.0
00:05:00,  969.0,   22.1,   92.9,    1.41,   -0.32,    0.0,   -2.0
00:05:05,  969.0,   22.1,   92.9,    1.59,    0.13,    0.0,   -2.0
00:05:10,  969.0,   22.1,   92.9,    1.53,    0.13,    0.0,   -2.0
00:05:15,  969.1,   22.1,   92.9,    1.34,    0.11,    0.0,   -2.0
00:05:20,  969.0,   22.1,   92.9,    1.24,    0.18,    0.0,   -2.0
00:05:25,  969.0,   22.1,   93.0,    1.43,    0.37,    0.0,   -2.0
00:05:30,  969.0,   22.1,   92.9,    1.84,    0.02,    0.0,   -2.0
00:05:35,  969.0,   22.1,   92.8,    1.43,    0.12,    0.0,   -2.0
00:05:40,  969.0,   22.1,   92.9,    1.16,    0.30,    0.0,   -2.0
00:05:45,  969.0,   22.1,   92.9,    0.96,   -0.06,    0.0,   -2.0
00:05:50,  969.0,   22.1,   92.9,    0.70,    0.34,    0.0,   -2.0
00:05:55,  969.0,   22.1,   92.9,    1.31,    0.88,    0.0,   -2.0
00:06:00,  969.0,   22.1,   92.9,    1.43,    0.55,    0.0,   -2.0
00:06:05,  969.0,   22.1,   92.9,    1.45,    0.12,    0.0,   -2.0
00:06:10,  969.0,   22.1,   92.9,    1.25,    0.01,    0.0,   -2.0
00:06:15,  969.0,   22.1,   93.0,    0.79,    0.53,    0.0,   -2.0
00:06:20,  969.0,   22.1,   92.9,    0.93,    0.24,    0.0,   -2.0
00:06:25,  969.0,   22.1,   92.9,    0.93,    0.17,    0.0,   -2.0
00:06:30,  969.0,   22.1,   92.8,    0.76,    0.06,    0.0,   -2.0
00:06:35,  969.0,   22.1,   92.9,    0.42,    0.17,    0.0,   -2.0
00:06:40,  968.9,   22.1,   92.9,    0.92,    0.23,    0.0,   -2.0
00:06:45,  969.0,   22.1,   92.9,    0.94,   -0.04,    0.0,   -2.0
00:06:50,  969.0,   22.1,   92.9,    0.92,   -0.37,    0.0,   -2.0
00:06:55,  968.9,   22.1,   92.9,    0.75,    0.05,    0.0,   -2.0
00:07:00,  969.0,   22.1,   92.9,    0.76,   -0.12,    0.0,   -2.0
00:07:05,  969.0,   22.1,   93.0,    0.40,   -0.20,    0.0,   -2.2
00:07:10,  969.0,   22.1,   92.9,    0.59,   -0.43,    0.0,   -2.2
00:07:15,  969.0,   22.1,   92.9,    0.95,   -0.39,    0.0,   -2.4
00:07:20,  969.0,   22.1,   92.9,    1.20,   -0.05,    0.0,   -2.4
00:07:25,  969.0,   22.1,   92.9,    1.70,    0.44,    0.0,   -2.4
00:07:30,  969.0,   22.1,   92.9,    1.11,   -0.55,    0.0,   -2.4
00:07:35,  968.9,   22.1,   92.9,    1.48,   -0.11,    0.0,   -2.4
00:07:40,  969.1,   22.1,   92.9,    1.47,    0.19,    0.0,   -2.4
00:07:45,  969.0,   22.1,   92.9,    1.42,    0.30,    0.0,   -2.2
00:07:50,  969.0,   22.1,   93.0,    1.13,    0.36,    0.0,   -2.4
00:07:55,  968.9,   22.1,   92.9,    1.21,    0.25,    0.0,   -2.4
00:08:00,  969.0,   22.1,   92.9,    0.94,    0.73,    0.0,   -2.4
00:08:05,  969.0,   22.1,   92.9,    0.94,    0.12,    0.0,   -2.0
00:08:10,  969.0,   22.1,   92.9,    0.95,    0.12,    0.0,   -2.0
00:08:15,  969.0,   22.1,   92.9,    0.95,    0.24,    0.0,   -2.0
00:08:20,  969.1,   22.1,   92.9,    0.88,    0.34,    0.0,   -2.2
00:08:25,  969.0,   22.1,   92.9,    0.68,    0.44,    0.0,   -2.2
00:08:30,  968.9,   22.1,   92.9,    0.36,    0.30,    0.0,   -2.2
00:08:35,  969.0,   22.1,   92.9,    0.21,    0.16,    0.0,   -2.4
00:08:40,  969.0,   22.1,   92.9,    0.35,    0.27,    0.0,   -2.4
00:08:45,  969.0,   22.1,   92.9,    0.51,    0.74,    0.0,   -2.4
00:08:50,  969.0,   22.1,   92.9,    0.34,    0.31,    0.0,   -2.4
00:08:55,  969.0,   22.1,   92.9,    0.74,   -0.12,    0.0,   -2.4
00:09:00,  969.0,   22.1,   92.9,    0.84,   -0.26,    0.0,   -2.4
00:09:05,  969.0,   22.1,   92.8,    1.27,   -0.08,    0.0,   -2.4
00:09:10,  968.9,   22.1,   92.9,    1.16,   -0.41,    0.0,   -2.4
00:09:15,  969.0,   22.1,   92.9,    0.45,    0.62,    0.0,   -2.4
00:09:20,  969.0,   22.1,   92.9,    0.49,    0.58,    0.0,   -2.2
00:09:25,  969.0,   22.1,   92.8,    0.29,    0.65,    0.0,   -2.2
00:09:30,  969.0,   22.1,   92.9,    0.13,    0.49,    0.0,   -2.2
00:09:35,  969.0,   22.1,   92.9,    0.39,    0.23,    0.0,   -2.2
00:09:40,  969.0,   22.1,   92.9,    0.74,    0.06,    0.0,   -2.4
00:09:45,  969.0,   22.1,   92.9,    0.28,    0.48,    0.0,   -2.4
00:09:50,  969.0,   22.1,   92.9,    0.37,    0.42,    0.0,   -2.4
00:09:55,  969.1,   22.1,   93.0,    0.17,    0.24,    0.0,   -2.4
00:10:00,  969.0,   22.1,   92.9,    0.36,    0.28,    0.0,   -2.4
00:10:05,  969.1,   22.1,   92.9,    0.75,   -0.12,    0.0,   -2.4
00:10:10,  969.0,   22.1,   92.9,    1.28,    0.24,    0.0,   -2.2
00:10:15,  969.0,   22.1,   92.9,    0.75,    0.06,    0.0,   -2.2
00:10:20,  968.9,   22.1,   92.8,    0.74,    0.19,    0.0,   -2.2
00:10:25,  969.0,   22.1,   92.9,    0.71,   -0.21,    0.0,   -2.2
00:10:30,  969.0,   22.1,   92.9,    0.39,    0.44,    0.0,   -2.2
00:10:35,  969.0,   22.1,   92.9,    0.49,    0.30,    0.0,   -2.2
00:10:40,  968.9,   22.1,   92.9,    0.50,    0.57,    0.0,   -2.2
00:10:45,  969.0,   22.1,   92.9,    1.22,    0.23,    0.0,   -2.2
00:10:50,  969.0,   22.1,   92.9,    0.85,    0.41,    0.0,   -2.0
00:10:55,  969.0,   22.1,   92.8,    0.56,    0.57,    0.0,   -2.0
00:11:00,  968.9,   22.1,   92.9,    0.59,    0.60,    0.0,   -2.0
00:11:05,  969.0,   22.1,   92.9,    0.79,    0.49,    0.0,   -2.0
00:11:10,  969.0,   22.1,   92.9,    0.98,    1.04,    0.0,   -2.0
00:11:15,  969.0,   22.1,   92.9,    0.91,    0.47,    0.0,   -2.0
00:11:20,  969.0,   22.1,   92.9,    0.94,    0.12,    0.0,   -2.0
00:11:25,  969.0,   22.0,   92.9,    1.72,    0.66,    0.0,   -2.0
00:11:30,  969.0,   22.0,   92.8,    1.33,    0.86,    0.0,   -2.0
00:11:35,  968.9,   22.0,   92.9,    0.85,   -0.27,    0.0,   -2.0
00:11:40,  969.0,   22.0,   92.8,    1.16,    0.44,    0.0,   -2.0
00:11:45,  968.9,   22.0,   92.9,    0.83,   -0.10,    0.0,   -2.0
00:11:50,  968.9,   22.0,   92.8,    0.90,   -0.16,    0.0,   -2.0
00:11:55,  969.0,   22.0,   92.9,    0.80,   -0.28,    0.0,   -2.0
00:12:00,  968.9,   22.0,   92.9,    0.48,    0.00,    0.0,   -2.0
00:12:05,  969.0,   22.0,   92.9,    0.62,   -0.63,    0.0,   -2.0
00:12:10,  969.0,   22.0,   92.9,    0.37,   -0.19,    0.0,   -2.0
00:12:15,  969.0,   22.0,   92.9,    0.26,   -0.11,    0.0,   -1.8
00:12:20,  968.9,   22.0,   92.9,    0.48,   -0.81,    0.0,   -1.6
00:12:25,  969.0,   22.0,   92.9,    0.92,   -0.77,    0.0,   -1.8
00:12:30,  969.0,   22.0,   92.9,    1.04,   -1.05,    0.0,   -1.6
00:12:35,  969.0,   22.0,   92.9,    0.50,   -0.56,    0.0,   -1.6
00:12:40,  969.0,   22.0,   92.8,    0.14,   -0.53,    0.0,   -1.6
00:12:45,  969.0,   22.0,   92.9,    0.41,    0.21,    0.0,   -1.6
00:12:50,  969.0,   22.0,   92.8,    0.45,   -0.08,    0.0,   -1.6
00:12:55,  968.9,   22.0,   92.9,    0.36,    0.30,    0.0,   -1.6
00:13:00,  969.0,   22.0,   92.9,    0.43,    0.07,    0.0,   -1.6
00:13:05,  969.0,   22.0,   92.8,    0.29,    0.02,    0.0,   -1.6
00:13:10,  969.0,   22.0,   92.9,    0.26,   -0.11,    0.0,   -1.6
00:13:15,  968.9,   22.0,   92.8,    0.45,    0.09,    0.0,   -1.8
00:13:20,  969.0,   22.0,   92.8,    0.71,    0.27,    0.0,   -1.6
00:13:25,  969.0,   22.0,   92.9,    0.73,    0.23,    0.0,   -1.6
00:13:30,  969.0,   22.0,   92.9,    0.41,   -0.20,    0.0,   -1.6
00:13:35,  969.0,   22.0,   92.8,    0.72,   -0.05,    0.0,   -1.6
00:13:40,  969.0,   22.0,   92.9,    0.92,    0.19,    0.0,   -1.6
00:13:45,  969.0,   22.0,   92.9,    0.95,   -0.12,    0.0,   -1.6
00:13:50,  969.0,   22.0,   92.9,    0.87,    0.06,    0.0,   -1.8
00:13:55,  969.0,   22.0,   92.8,    0.76,   -0.09,    0.0,   -1.8
00:14:00,  969.0,   22.0,   92.9,    0.76,   -0.34,    0.0,   -1.6
00:14:05,  969.0,   22.0,   92.9,    0.87,   -0.36,    0.0,   -1.6
00:14:10,  969.0,   22.0,   92.9,    0.93,   -0.17,    0.0,   -1.6
00:14:15,  969.0,   22.0,   92.9,    1.25,    0.10,    0.0,   -1.6
00:14:20,  968.9,   22.0,   92.9,    0.89,   -0.36,    0.0,   -1.6
00:14:25,  969.0,   22.0,   92.9,    0.87,    0.22,    0.0,   -1.6
00:14:30,  969.0,   22.0,   92.8,    0.98,    0.15,    0.0,   -1.8
00:14:35,  969.0,   22.0,   92.9,    0.41,   -0.12,    0.0,   -1.6
00:14:40,  968.9,   22.0,   92.8,    0.16,    0.40,    0.0,   -1.8
00:14:45,  969.0,   22.0,   92.8,    0.36,    0.25,    0.0,   -1.8
00:14:50,  968.9,   22.0,   92.9,    0.51,    0.35,    0.0,   -1.8
00:14:55,  968.9,   22.0,   92.9,    0.94,    0.24,    0.0,   -1.8
00:15:00,  968.9,   22.0,   92.9,    1.72,    0.45,    0.0,   -1.8
00:15:05,  969.0,   22.0,   92.9,    1.45,   -0.33,    0.0,   -1.8
00:15:10,  969.0,   22.0,   92.8,    1.45,    0.31,    0.0,   -1.6
00:15:15,  968.9,   22.0,   92.9,    1.66,    0.65,    0.0,   -1.6
00:15:20,  969.0,   22.0,   92.9,    1.07,    0.63,    0.0,   -1.6
00:15:25,  969.0,   22.0,   92.9,    0.94,   -0.15,    0.0,   -1.6
00:15:30,  969.0,   22.0,   92.9,    0.46,    0.00,    0.0,   -1.6
00:15:35,  969.0,   22.0,   92.9,    1.32,   -0.14,    0.0,   -1.6
00:15:40,  968.9,   22.0,   92.9,    1.02,    0.61,    0.0,   -1.6
00:15:45,  968.9,   22.0,   92.8,    1.47,    0.12,    0.0,   -1.6
00:15:50,  968.9,   22.0,   92.8,    1.75,    0.18,    0.0,   -1.6
00:15:55,  969.0,   22.0,   92.9,    1.97,    0.17,    0.0,   -1.6
00:16:00,  969.0,   22.0,   92.9,    1.52,   -0.45,    0.0,   -1.6
00:16:05,  969.0,   22.0,   92.8,    1.80,   -0.77,    0.0,   -1.6
00:16:10,  968.9,   22.0,   92.9,    1.67,   -0.61,    0.0,   -1.6
00:16:15,  968.9,   22.0,   92.9,    0.80,   -0.49,    0.0,   -1.6
00:16:20,  969.0,   22.0,   92.9,    0.80,   -0.05,    0.0,   -1.6
00:16:25,  969.0,   22.0,   92.9,    0.50,    0.13,    0.0,   -1.6
00:16:30,  968.9,   22.0,   92.9,    0.17,    0.38,    0.0,   -1.6
00:16:35,  969.0,   22.0,   92.8,    0.88,    0.34,    0.0,   -1.6
00:16:40,  968.9,   22.0,   92.9,    1.39,    0.35,    0.0,   -1.6
00:16:45,  969.0,   22.0,   92.8,    1.54,    0.40,    0.0,   -1.6
00:16:50,  969.0,   22.0,   92.9,    0.88,    1.70,    0.0,   -1.6
00:16:55,  968.9,   22.0,   92.9,   -0.18,    1.34,    0.0,   -1.6
00:17:00,  969.0,   22.0,   92.8,    0.77,    0.55,    0.0,   -1.6
00:17:05,  969.0,   22.0,   92.9,    0.79,    0.38,    0.0,   -1.6
00:17:10,  969.0,   22.0,   92.8,    1.53,    0.23,    0.0,   -1.6
00:17:15,  969.0,   22.0,   92.9,    1.80,    0.69,    0.0,   -1.6
00:17:20,  969.0,   22.0,   92.8,    1.35,    0.73,    0.0,   -1.6
00:17:25,  968.9,   22.0,   92.9,    1.24,    0.01,    0.0,   -1.6
00:17:30,  969.0,   22.0,   92.9,    1.46,    0.12,    0.0,   -1.6
00:17:35,  969.0,   22.0,   92.9,    1.50,   -0.38,    0.0,   -1.6
00:17:40,  969.0,   22.0,   92.9,    0.99,   -0.25,    0.0,   -1.6
00:17:45,  969.0,   22.0,   92.9,    0.57,    0.04,    0.0,   -1.6
00:17:50,  968.9,   22.0,   92.9,    0.53,    0.20,    0.0,   -1.6
00:17:55,  969.0,   22.0,   92.9,    0.33,    0.30,    0.0,   -1.6
00:18:00,  968.9,   22.0,   92.9,    0.42,    0.08,    0.0,   -1.6
00:18:05,  968.9,   22.0,   92.9,    0.83,    0.43,    0.0,   -1.6
00:18:10,  968.9,   22.0,   92.9,    0.73,    0.05,    0.0,   -1.6
00:18:15,  969.0,   22.0,   92.8,    0.44,   -0.18,    0.0,   -1.6
00:18:20,  969.0,   22.0,   92.9,    0.05,    0.01,    0.0,   -1.6
00:18:25,  969.0,   22.0,   92.9,   -0.13,    0.22,    0.0,   -1.6
00:18:30,  969.0,   22.0,   92.8,   -0.11,    0.44,    0.0,   -1.6
00:18:35,  969.0,   22.0,   92.9,   -0.15,    0.97,    0.0,   -1.6
00:18:40,  968.9,   22.0,   92.9,    0.44,    0.60,    0.0,   -1.6
00:18:45,  969.0,   22.0,   92.9,    0.30,    0.69,    0.0,   -1.6
00:18:50,  969.0,   22.0,   92.9,    0.46,    0.04,    0.0,   -1.6
00:18:55,  969.0,   22.0,   92.9,    0.18,    0.22,    0.0,   -1.6
00:19:00,  969.0,   22.0,   92.9,   -0.11,    0.28,    0.0,   -1.6
00:19:05,  969.0,   22.0,   92.9,   -0.22,    0.28,    0.0,   -1.6
00:19:10,  969.0,   22.0,   92.9,   -0.02,    0.09,    0.0,   -1.6
00:19:15,  969.0,   22.0,   92.9,   -0.01,    0.01,    0.0,   -1.6
00:19:20,  969.0,   22.0,   92.9,   -0.04,    0.02,    0.0,   -1.6
00:19:25,  968.9,   22.0,   92.9,   -0.01,   -0.00,    0.0,   -1.6
00:19:30,  968.9,   22.0,   92.9,   -0.01,   -0.01,    0.0,   -1.6
00:19:35,  968.9,   22.0,   92.9,   -0.03,   -0.01,    0.0,   -1.6
00:19:40,  969.0,   22.0,   92.9,   -0.01,    0.01,    0.0,   -1.6
00:19:45,  969.0,   22.0,   92.9,    0.00,    0.00,    0.0,   -1.6
00:19:50,  968.9,   22.0,   92.9,    0.04,   -0.01,    0.0,   -1.6
00:19:55,  969.0,   22.0,   92.9,   -0.04,   -0.00,    0.0,   -1.6
00:20:00,  969.0,   22.0,   92.8,   -0.00,    0.00,    0.0,   -1.6
00:20:05,  969.0,   22.0,   92.9,   -0.00,    0.00,    0.0,   -1.6
00:20:10,  968.9,   22.0,   92.9,   -0.00,    0.00,    0.0,   -1.6
00:20:15,  968.9,   22.0,   92.9,   -0.02,    0.00,    0.0,   -1.6
00:20:20,  968.9,   22.1,   92.9,   -0.01,    0.01,    0.0,   -1.6
00:20:25,  969.0,   22.1,   92.9,   -0.01,    0.00,    0.0,   -1.6
00:20:30,  968.9,   22.1,   92.8,   -0.01,    0.00,    0.0,   -1.6
00:20:35,  969.0,   22.0,   92.9,   -0.00,   -0.03,    0.0,   -1.6
00:20:40,  969.0,   22.1,   92.8,    0.03,   -0.03,    0.0,   -1.6
00:20:45,  968.9,   22.1,   92.9,    0.01,   -0.00,    0.0,   -1.6
00:20:50,  969.0,   22.1,   92.9,    0.00,    0.00,    0.0,   -1.6
00:20:55,  968.9,   22.1,   92.9,   -0.02,    0.04,    0.0,   -1.6
00:21:00,  969.0,   22.1,   92.9,   -0.02,    0.01,    0.0,   -1.6
00:21:05,  968.9,   22.0,   93.0,   -0.01,    0.01,    0.0,   -1.4
00:21:10,  968.9,   22.1,   92.9,   -0.01,    0.01,    0.0,   -1.6
00:21:15,  969.0,   22.1,   92.9,    0.00,    0.02,    0.0,   -1.6
00:21:20,  968.9,   22.0,   92.9,    0.00,    0.00,    0.0,   -1.6
00:21:25,  969.0,   22.1,   92.9,    0.01,   -0.00,    0.0,   -1.6
00:21:30,  968.9,   22.0,   92.9,    0.01,    0.00,    0.0,   -1.6
00:21:35,  968.9,   22.0,   92.9,    0.69,    0.27,    0.0,   -1.6
00:21:40,  968.9,   22.0,   92.9,    1.44,   -0.32,    0.0,   -1.6
00:21:45,  968.9,   22.0,   92.9,    0.92,   -0.54,    0.0,   -1.4
00:21:50,  969.0,   22.1,   92.9,    0.91,    0.47,    0.0,   -1.4
00:21:55,  969.0,   22.0,   92.9,    0.44,    0.61,    0.0,   -1.4
00:22:00,  969.0,   22.0,   92.9,    0.79,    0.51,    0.0,   -1.4
00:22:05,  969.0,   22.0,   92.9,    0.12,    0.57,    0.0,   -1.4
00:22:10,  968.9,   22.0,   92.8,    0.09,    0.79,    0.0,   -1.4
00:22:15,  968.9,   22.0,   92.9,    0.73,    1.00,    0.0,   -1.4
00:22:20,  968.9,   22.0,   92.9,    1.02,    1.08,    0.0,   -1.4
00:22:25,  969.0,   22.0,   92.9,    0.69,    0.61,    0.0,   -1.4
00:22:30,  969.0,   22.0,   92.9,    1.05,    0.65,    0.0,   -1.6
00:22:35,  968.9,   22.0,   92.9,    1.41,    1.09,    0.0,   -1.6
00:22:40,  968.9,   22.0,   92.9,    1.70,    0.54,    0.0,   -1.6
00:22:45,  968.9,   22.0,   92.8,    1.47,    0.47,    0.0,   -1.6
00:22:50,  968.9,   22.0,   92.8,    1.74,    0.37,    0.0,   -1.6
00:22:55,  968.9,   22.0,   92.9,    0.94,    0.06,    0.0,   -1.6
00:23:00,  969.0,   22.0,   92.9,    0.63,    0.64,    0.0,   -1.6
00:23:05,  969.0,   22.0,   93.0,    0.64,    0.72,    0.0,   -1.6
00:23:10,  968.9,   22.0,   92.9,    1.19,    0.31,    0.0,   -1.6
00:23:15,  968.9,   22.0,   92.9,    1.33,    0.51,    0.0,   -1.6
00:23:20,  968.9,   22.0,   92.9,    1.25,    0.10,    0.0,   -1.8
